Location: Balaclava NSW 2575, Australia
(34.4510°S, 150.4953°E)
Time: 21:50:24
(UTC+10:00)

XW-2C - Pass Details

Date: 03 August 2021
Orbit: 505 x 524 km, 97.5° (Epoch: 26 September)

Event Time Altitude Azimuth Distance (km) Brightness Sun altitude
Rises 18:56:23 0° 192° (SSW) 2,662 ? -20.3°
Reaches altitude 10° 18:59:25 10° 219° (SW) 1,759 ? -20.9°
Maximum altitude 19:01:16 13° 248° (WSW) 1,547 ? -21.3°
Drops below altitude 10° 19:03:07 10° 278° (W) 1,741 ? -21.7°
Sets 19:06:06 0° 305° (NW) 2,612 ? -22.3°
